Simultaneous Nadir Overpasses (SNOs) Predictions

Prediction of SNOs between NPP and TERRA Satellite Orbit:

Table of predicted SNOs for the next 14.0 days since TLE Epoch: 2/3/2017
Index Date (NPP) Time (NPP) Lat,Lon (NPP) SZA (NPP ) Date (TERRA) Time (TERRA) Lat,Lon (TERRA) SZA (TERRA ) Distance(km) Time Diff (sec)
1 02/03/2017 19:13:19 68.29,-109.62 84.53 02/03/2017 19:13:16 68.29,-109.67 84.53 2.04 3
2 02/03/2017 20:03:59 -68.12, 57.92 95.66 02/03/2017 20:02:47 -68.12, 57.77 95.65 6.35 72
3 02/06/2017 10:39:28 -68.39,-161.28 96.17 02/06/2017 10:40:18 -68.38,-161.33 96.19 2.37 50
4 02/06/2017 11:30:12 68.25, 6.20 83.68 02/06/2017 11:29:45 68.27, 6.18 83.70 2.33 27
5 02/06/2017 12:20:37 -67.27, 174.73 97.35 02/06/2017 12:19:30 -67.32, 172.73 97.23 85.93 67
6 02/09/2017 02:05:56 69.33, 145.89 83.99 02/09/2017 02:07:03 69.23, 147.99 83.81 83.21 67
7 02/09/2017 02:56:21 -68.35, -45.46 97.05 02/09/2017 02:56:47 -68.35, -45.49 97.06 1.33 26
8 02/09/2017 03:47:05 68.22, 122.02 82.80 02/09/2017 03:46:14 68.24, 122.02 82.82 2.26 51
9 02/11/2017 18:22:34 68.50, -97.19 82.24 02/11/2017 18:23:45 68.47, -97.10 82.19 5.36 71
10 02/11/2017 19:13:14 -68.32, 70.36 97.96 02/11/2017 19:13:16 -68.30, 70.34 97.98 1.81 2
11 02/11/2017 20:03:57 68.13,-122.09 81.84 02/11/2017 20:02:44 68.13,-122.22 81.85 5.17 73
12 02/14/2017 10:39:25 68.42, 18.69 81.26 02/14/2017 10:40:13 68.41, 18.71 81.24 1.38 48
13 02/14/2017 11:30:06 -68.29,-173.83
